Location: C?l?m?re?ti
(46.1333°N, 22.7833°E)
Time: 03:21:45
(UTC+00:00)

Daily predictions for brighter satellites

Satellite Brightness Start Highest point End
(mag) Time Altitude Azimuth Time Altitude Azimuth Time Altitude Azimuth
Cosmos 2369 Rocket 4.4 02:10:06 19° NE 02:10:06 19° NE 02:11:40 10° NE
USA 215 4.1 02:27:21 10° E 02:33:12 39° NNE 02:33:12 39° NNE
SJ 16-02 4.1 02:37:57 10° SE 02:40:42 17° E 02:43:29 10° ENE
ATLAS 5 CENTAUR R/B 3.2 02:59:50 29° E 02:59:50 29° E 03:02:52 10° NE
CENTAUR R/B 3.6 03:11:58 33° NNW 03:11:58 33° NNW 03:17:42 10° NNE
BREEZE-M DEB (TANK) 4.1 03:13:53 37° NE 03:13:53 37° NE 03:18:03 10° ENE
Cosmos 1354 Rocket 4.1 03:13:19 65° SSE 03:14:01 77° ESE 03:19:20 10° NNE
DELTA 2 R/B (1) 4.2 03:19:03 43° S 03:19:22 43° S 03:24:35 10° ESE
SL-19 R/B 4.2 03:15:53 10° SSE 03:21:26 85° ENE 03:23:35 40° NNW
Cosmos 2180 Rocket 4.5 03:17:25 10° N 03:23:36 79° E 03:29:44 10° SSE
MOS 1-B Rocket 3.7 03:24:18 10° S 03:30:21 77° WSW 03:32:38 38° NNW
CZ-4C R/B 4.5 03:30:24 10° SE 03:33:10 30° ENE 03:33:24 30° ENE
Cosmos 1656 Rocket 4.3 03:39:19 37° NNW 03:39:19 37° NNW 03:43:19 10° NNE
Meteor 1-27 Rocket 4.0 03:34:35 10° N 03:40:16 69° ENE 03:46:02 10° SSE
Meteor 2-6 Rocket 4.1 03:41:55 53° W 03:41:55 53° W 03:47:06 10° S
ATLAS 3B R/B 3.0 03:37:25 10° SSW 03:43:51 65° ESE 03:50:37 10° NE
Cosmos 783 Rocket 4.4 03:44:51 54° WNW 03:45:41 61° WSW 03:50:48 10° S
Cosmos 1607 4.4 03:42:26 24° NNW 03:46:12 57° NE 03:52:15 10° SE
Cosmos 2297 Rocket 3.7 03:41:59 11° N 03:46:48 31° NE 03:51:48 10° ESE
Meteor 2-15 Rocket 4.4 03:41:47 10° N 03:47:53 83° E 03:53:58 10° S
Cosmos 2369 Rocket 3.3 03:51:56 26° NNW 03:51:56 26° NNW 03:55:23 10° N
NOSS 3-2 (C) 4.5 03:51:07 27° NNW 03:51:35 27° NNW 03:57:18 10° NNE
Cosmos 1503 Rocket 4.2 03:52:16 45° WNW 03:52:25 45° WNW 03:57:35 10° N
Cosmos 773 Rocket 4.0 03:51:56 44° NW 03:53:16 59° WSW 03:58:19 10° S
Cosmos 1777 Rocket 3.9 03:50:15 10° SSW 03:55:29 86° WNW 04:00:46 10° NNE
CZ-2C R/B 2.5 03:51:00 10° S 03:56:25 67° WSW 04:00:25 18° NNW
Cosmos 1943 Rocket 4.1 03:59:15 13° NNW 03:59:15 13° NNW 04:00:32 10° N
Landsat 5 3.5 03:52:54 10° SSE 03:57:24 84° WSW 04:00:07 23° NNW
COSMO-SKYMED 1 2.5 03:54:26 10° S 03:58:42 60° W 03:59:58 42° NW
Cosmos 1340 Rocket 3.0 03:55:22 10° S 03:59:18 72° E 04:03:20 10° NNE
Cosmos 158 Rocket 4.1 03:57:03 18° NNW 04:00:54 76° ENE 04:06:12 10° SSE
SL-27 R/B 3.8 04:02:53 26° SSW 04:02:53 26° SSW 04:04:48 10° S
Cosmos 1408 Rocket 3.5 04:00:09 10° SSW 04:04:22 58° WNW 04:08:39 10° N
CZ-4B R/B 4.2 04:03:18 10° ESE 04:05:13 15° ENE 04:07:06 10° NNE
SJ-12 4.0 04:01:26 10° N 04:05:27 50° WNW 04:09:27 10° SSW
CZ-4B R/B 4.1 04:04:32 10° NNE 04:07:55 38° E 04:11:19 10° SSE
Meteor 2-15 4.5 04:02:58 10° NNW 04:08:51 54° W 04:14:42 10° SSW
Lacrosse 5 4.2 04:04:58 10° S 04:09:06 25° SE 04:13:14 10° ENE
Cosmos 2279 Rocket 4.4 04:06:26 22° NW 04:09:46 37° W 04:15:21 10° SSW
USA 32 4.3 04:05:21 10° N 04:10:36 69° E 04:15:50 10° SSE
Envisat 3.1 04:07:02 10° N 04:11:59 52° WNW 04:16:53 10° SW
FALCON 9 DEB 4.2 04:12:42 26° N 04:12:52 26° NNE 04:15:23 10° ENE
Meteor 1-31 Rocket 2.8 04:11:10 10° N 04:14:58 53° WNW 04:18:48 10° SSW
Cosmos 1174 3.8 04:15:43 37° NNW 04:15:43 37° NNW 04:18:11 10° NNE
BREEZE-M DEB (TANK) 3.5 04:02:52 10° WSW 04:15:33 75° SSE 04:19:03 10° ENE
USA 215 3.3 04:09:16 10° ESE 04:15:47 75° NNE 04:20:33 20° NW
Cosmos 1743 Rocket 3.4 04:12:12 10° S 04:16:34 81° W 04:20:56 10° N
CZ-2C R/B 3.5 04:12:01 10° NNE 04:16:57 64° ESE 04:22:07 10° S
SJ 16-02 1.4 04:14:34 10° SW 04:18:51 52° WNW 04:23:08 10° N
Nadezhda 4 Rocket 3.9 04:13:28 10° SSW 04:19:36 66° W 04:25:52 10° N
Cosmos 2227 Rocket 3.3 04:18:00 10° NNW 04:23:19 40° NE 04:28:37 10° SE
Cosmos 1515 Rocket 4.1 04:22:56 27° NW 04:24:19 34° W 04:28:14 10° SSW
Meteor 2-19 Rocket 4.5 04:19:34 10° SSW 04:25:27 54° WNW 04:31:24 10° N
IRAS Rocket 4.2 04:20:36 10° SSE 04:26:06 86° WSW 04:31:37 10° NNW
SL-4 R/B 2.4 04:24:19 11° SW 04:27:34 53° SE 04:31:12 10° ENE
Lacrosse 4 Rocket 3.4 04:23:50 10° N 04:27:34 25° NE 04:31:19 10° ESE
Cosmos 1939 Rocket 3.5 04:28:38 10° NNE 04:32:29 56° E 04:36:17 10° S
Cosmos 2228 Rocket 3.0 04:29:02 10° NNW 04:33:33 77° W 04:38:06 10° S
Okean 1 3.4 04:32:44 10° N 04:36:43 78° E 04:40:39 10° SSE
DMSP B5D2-2 4.0 04:35:01 10° S 04:40:12 66° WSW 04:45:24 10° NNW
NOAA 11 4.1 04:34:59 10° N 04:40:26 66° WNW 04:45:52 10° SSW
Cosmos 1092 Rocket 4.0 04:34:14 10° SSW 04:40:30 77° W 04:46:52 10° N
Sich 1 2.9 04:37:43 10° S 04:42:00 87° W 04:46:18 10° N
Meteor 1-20 Rocket 4.2 04:37:02 10° SSW 04:42:37 70° WNW 04:48:21 10° N
Cosmos 990 Rocket 4.4 04:37:32 10° S 04:42:44 67° ESE 04:47:57 10° NNE
Cosmos 1602 3.7 04:39:28 10° SSW 04:43:13 59° W 04:47:00 10° N
Cosmos 1500 Rocket 4.0 04:39:04 10° SW 04:43:16 40° WNW 04:47:31 10° N
Meteor PRIRODA 3.5 04:39:50 10° N 04:43:27 65° WNW 04:47:03 10° SSW
ATLAS 5 CENTAUR R/B 2.1 04:41:25 19° W 04:43:41 32° NW 04:47:44 10° NNE
GENESIS II 4.3 04:42:32 18° NW 04:45:20 63° WSW 04:49:16 10° SSE
COSMOS 2487 3.5 04:47:50 20° WNW 04:49:06 25° WSW 04:51:53 10° SSW
Cosmos 1500 3.1 04:47:12 10° SSW 04:50:59 76° W 04:54:47 10° N
Cosmos 1697 Rocket 4.4 04:47:32 10° S 04:52:39 37° ESE 04:57:47 10° NE
H-2A R/B 2.0 04:50:03 10° S 04:54:20 70° WSW 04:58:46 10° NNW
Cosmos 1805 Rocket 3.7 04:51:41 10° SSW 04:55:56 49° WNW 05:00:11 10° N
Cosmos 1707 Rocket 3.6 04:52:02 10° N 04:56:30 89° W 05:00:58 10° S
Meteor 1-19 Rocket 4.1 04:51:00 10° NNW 04:56:31 67° W 05:01:53 10° S
Meteor 2-14 Rocket 4.4 04:53:21 10° SSW 04:59:29 75° W 05:05:39 10° N
Cosmos 44 4.5 04:56:35 10° SSW 05:01:47 52° ESE 05:06:50 10° NE
Cosmos 2219 3.4 04:56:55 10° NNW 05:02:37 76° ENE 05:08:18 10° SSE
CENTAUR R/B 4.3 04:59:09 10° NW 05:04:10 21° N 05:09:55 10° NE
Cosmos 724 4.3 04:58:47 10° NW 05:04:43 88° ENE 05:10:30 10° SE
PSLV R/B 4.2 05:05:13 10° NNE 05:09:12 71° ESE 05:13:15 10° S
Cosmos 1862 Rocket 3.8 05:05:43 10° N 05:10:04 75° E 05:14:24 10° SSE
CZ-3 R/B 4.0 05:09:44 10° SW 05:13:43 13° SSW 05:16:25 10° SSE
FALCON 9 DEB 2.6 05:14:23 11° WNW 05:17:07 79° SW 05:19:58 10° SE
AQUARIUS 4.1 05:13:18 10° N 05:17:48 72° WNW 05:22:16 10° SSW
FALCON 9 DEB 2.6 05:16:01 10° WNW 05:18:50 87° SW 05:21:40 10° ESE
Cosmos 1666 2.6 05:15:54 10° SSW 05:19:38 64° W 05:23:23 10° N
FALCON 9 DEB 2.8 05:17:31 10° WNW 05:20:24 71° NNE 05:23:17 10° ESE
NOAA 12 4.4 05:17:09 10° N 05:22:08 45° WNW 05:27:05 10° SW
Meteor 1-5 Rocket 4.4 05:17:46 10° S 05:23:32 90° ENE 05:29:30 10° N
NOSS 8 (F) 4.4 05:20:32 10° SSW 05:24:02 78° SE 05:27:01 10° NE
Cosmos 2026 Rocket 4.3 05:18:55 10° SSW 05:24:55 44° WNW 05:30:53 10° N
Okean O Rocket 3.1 05:21:36 10° NNE 05:25:49 42° E 05:29:58 10° S
ADEOS 4.5 05:21:51 10° N 05:26:07 26° WNW 05:30:22 10° WSW
Cosmos 2082 4.2 05:21:56 10° NNW 05:27:33 61° ENE 05:33:09 10° SE
